Tracking 29892 objects as of 21-Nov-2024
HD Live streaming from Space Station
objects crossing your sky now

COSMOS 2271

Track COSMOS 2271 now!
10-day predictions
COSMOS 2271 is classified as:


NORAD ID: 23002
Int'l Code: 1994-011D
Perigee: 1,409.4 km
Apogee: 1,422.0 km
Inclination: 82.6 °
Period: 114.0 minutes
Semi major axis: 7786 km
RCS: 1.0445 m2 (large)
Launch date: February 12, 1994
Source: Commonwealth of Independent States (former USSR) (CIS)
Launch site: PLESETSK MISSILE AND SPACE COMPLEX (PKMTR)
Your satellite tracking list
Your tracking list is empty




NASA's NSSDC Master Catalog

Two Line Element Set (TLE):
1 23002U 94011D   24325.87759719  .00000042  00000-0  17469-3 0  9997
2 23002  82.5628 304.5119 0008082  58.0967 302.0910 12.63500370419080
Source of the keplerian elements: AFSPC